This demonstration page uses our WeatherBlox Daily Observations layout. Learn more.

40.92945, -100.16068

Hourly Observations for December 30, 2016

Temp ( °F °C ) Dew Point ( °F °C ) Humidity (%) Winds ( mph kmh ) Pressure ( in mb ) Visibility ( mi km ) Precip ( " mm )
12:15 am 00:15 Clear 19 -7.3 12 -11 75 75 S 5 7 30.42 1030 10 16.0934 N/A
12:35 am 00:35 Clear 23 -5.1 13 -10.8 65 65 S 8 13 30.36 1028 10 16.0934 N/A
12:55 am 00:55 Clear 24 -4.5 12 -11.2 60 60 S 7 11 30.36 1028 10 16.0934 N/A
1:15 am 01:15 Clear 28 -2.4 10 -12.3 47 47 S 5 7 30.33 1027 10 16.0934 N/A
1:35 am 01:35 Clear 30 -0.9 10 -12.1 43 43 SSW 5 7 30.3 1026 10 16.0934 N/A
1:55 am 01:55 Clear 29 -1.8 11 -11.4 48 48 S 5 7 30.27 1025 10 16.0934 N/A
2:15 am 02:15 Clear 28 -2.1 12 -11.2 50 50 Calm 30.27 1025 10 16.0934 N/A
2:35 am 02:35 Clear 29 -1.8 11 -11.5 48 48 S 5 7 30.24 1024 10 16.0934 N/A
2:55 am 02:55 Clear 29 -1.4 12 -11.3 47 47 ESE 3 6 30.21 1023 10 16.0934 N/A
3:15 am 03:15 Clear 32 0.1 9 -12.7 38 38 SW 5 7 30.21 1023 10 16.0934 N/A
3:35 am 03:35 Clear 32 0.2 8 -13.1 36 36 Calm 30.18 1022 10 16.0934 N/A
3:55 am 03:55 Clear 32 -0.1 10 -12.4 39 39 SW 12 19 30.18 1022 10 16.0934 N/A
4:15 am 04:15 Clear 31 -0.7 9 -12.6 40 40 SW 5 7 30.15 1021 10 16.0934 N/A
4:35 am 04:35 Clear 28 -2 10 -12 47 47 SW 7 11 30.18 1022 10 16.0934 N/A
4:55 am 04:55 Clear 26 -3.6 11 -11.4 55 55 W 6 9 30.18 1022 10 16.0934 N/A
5:15 am 05:15 Clear 24 -4.4 12 -11.2 59 59 WSW 3 6 30.18 1022 10 16.0934 N/A
5:35 am 05:35 Clear 24 -4.2 12 -11.2 59 59 SW 8 13 30.18 1022 10 16.0934 N/A
5:55 am 05:55 Clear 24 -4.7 11 -11.5 59 59 SSW 5 7 30.15 1021 10 16.0934 N/A
6:15 am 06:15 Clear 24 -4.7 12 -11.3 60 60 SW 5 7 30.15 1021 10 16.0934 N/A
6:35 am 06:35 Clear 23 -5.2 12 -11.2 63 63 Calm 30.18 1022 10 16.0934 N/A
6:55 am 06:55 Clear 22 -5.5 11 -11.5 63 63 WSW 5 7 30.15 1021 10 16.0934 N/A
7:15 am 07:15 Clear 20 -6.8 12 -11.3 71 71 SSW 6 9 30.15 1021 10 16.0934 N/A
7:35 am 07:35 Clear 22 -5.6 13 -10.4 69 69 SW 8 13 30.09 1019 10 16.0934 N/A
7:55 am 07:55 Clear 22 -5.5 14 -10.1 70 70 WSW 5 7 30.09 1019 10 16.0934 N/A
8:15 am 08:15 Sunny 20 -6.8 13 -10.5 75 75 W 5 7 30.12 1020 10 16.0934 N/A
8:35 am 08:35 Sunny 21 -6.3 15 -9.7 77 77 Calm 30.09 1019 10 16.0934 N/A
8:55 am 08:55 Sunny 23 -5.2 16 -9.1 74 74 WSW 3 6 30.06 1018 10 16.0934 N/A
9:15 am 09:15 Sunny 26 -3.2 17 -8.4 68 68 Calm 30.06 1018 10 16.0934 N/A
9:35 am 09:35 Sunny 30 -1.1 19 -7.4 63 63 SW 3 6 30.03 1017 10 16.0934 N/A
9:55 am 09:55 Sunny 32 0.1 20 -6.9 60 60 WSW 3 6 29.97 1015 10 16.0934 N/A
10:15 am 10:15 Sunny 34 1.1 20 -6.7 56 56 W 3 6 29.97 1015 10 16.0934 N/A
10:35 am 10:35 Sunny 37 2.5 21 -6.1 53 53 W 3 6 29.97 1015 10 16.0934 N/A
10:55 am 10:55 Sunny 40 4.3 22 -5.6 49 49 WNW 5 7 29.91 1013 10 16.0934 N/A
11:15 am 11:15 Sunny 42 5.8 22 -5.5 44 44 W 5 7 29.88 1012 10 16.0934 N/A
11:35 am 11:35 Sunny 46 7.5 22 -5.5 40 40 Calm 29.85 1011 10 16.0934 N/A
11:55 am 11:55 Sunny 50 10 22 -5.7 33 33 SW 8 13 29.8 1009 10 16.0934 N/A
12:15 pm 12:15 Sunny 52 11 21 -5.9 30 30 SW 9 15 29.74 1007 10 16.0934 N/A
12:35 pm 12:35 Sunny 53 11.8 21 -5.9 29 29 SW 8 13 29.74 1007 10 16.0934 N/A
12:55 pm 12:55 Sunny 55 12.6 22 -5.5 28 28 SW 8 13 29.71 1006 10 16.0934 N/A
1:15 pm 13:15 Sunny 56 13.5 22 -5.7 26 26 SSW 6 9 29.71 1006 10 16.0934 N/A
1:35 pm 13:35 Sunny 56 13.5 22 -5.8 26 26 SW 7 11 29.65 1004 10 16.0934 N/A
1:55 pm 13:55 Sunny 56 13.4 22 -5.7 26 26 SW 12 19 29.68 1005 10 16.0934 N/A
2:15 pm 14:15 Sunny 56 13.6 23 -5.1 27 27 SW 7 11 29.65 1004 10 16.0934 N/A
2:35 pm 14:35 Sunny 58 14.2 22 -5.6 25 25 SW 9 15 29.65 1004 10 16.0934 N/A
2:55 pm 14:55 Sunny 57 13.8 22 -5.3 26 26 SW 5 7 29.62 1003 10 16.0934 N/A
3:15 pm 15:15 Sunny 57 14 23 -5 27 27 SW 5 7 29.62 1003 10 16.0934 N/A
3:35 pm 15:35 Sunny 58 14.4 24 -4.4 27 27 SSW 7 11 29.62 1003 10 16.0934 N/A
3:55 pm 15:55 Sunny 58 14.5 24 -4.3 27 27 SW 7 11 29.62 1003 10 16.0934 N/A
4:15 pm 16:15 Sunny 58 14.3 24 -4.5 27 27 SSW 9 15 29.62 1003 10 16.0934 N/A
4:35 pm 16:35 Sunny 55 12.8 24 -4.7 29 29 SSW 7 11 29.62 1003 10 16.0934 N/A
4:55 pm 16:55 Sunny 51 10.8 23 -4.9 33 33 SSW 9 15 29.62 1003 10 16.0934 N/A
5:15 pm 17:15 Sunny 49 9.6 23 -5.2 35 35 SSW 5 7 29.65 1004 10 16.0934 N/A
5:35 pm 17:35 Clear 44 6.7 22 -5.4 42 42 N 9 15 29.65 1004 10 16.0934 N/A
5:55 pm 17:55 Clear 40 4.4 24 -4.7 52 52 NNE 3 6 29.68 1005 10 16.0934 N/A
6:15 pm 18:15 Clear 44 6.8 23 -4.9 43 43 WSW 7 11 29.65 1004 10 16.0934 N/A
6:35 pm 18:35 Clear 42 5.5 24 -4.5 49 49 SSW 9 15 29.68 1005 10 16.0934 N/A
6:55 pm 18:55 Clear 43 6.3 24 -4.4 47 47 N 12 19 29.68 1005 10 16.0934 N/A
7:15 pm 19:15 Clear 42 5.3 24 -4.2 51 51 NNE 10 17 29.71 1006 10 16.0934 N/A
7:35 pm 19:35 Clear 44 6.5 23 -5 44 44 ENE 5 7 29.71 1006 10 16.0934 N/A
7:55 pm 19:55 Clear 44 6.6 22 -5.7 41 41 NNE 8 13 29.71 1006 10 16.0934 N/A
8:15 pm 20:15 Clear 44 6.4 22 -5.5 43 43 N 13 20 29.71 1006 10 16.0934 N/A
8:35 pm 20:35 Clear 41 5.2 23 -5.1 48 48 NNE 16 26 29.74 1007 10 16.0934 N/A
8:55 pm 20:55 Clear 40 4.6 23 -5.1 50 50 NNE 13 20 29.74 1007 10 16.0934 N/A
9:15 pm 21:15 Clear 38 3.2 23 -5.1 55 55 N 9 15 29.77 1008 10 16.0934 N/A
9:35 pm 21:35 Clear 38 3.1 23 -5 56 56 N 10 17 29.77 1008 10 16.0934 N/A
9:55 pm 21:55 Clear 36 2.3 23 -4.8 60 60 N 8 13 29.77 1008 10 16.0934 N/A
10:15 pm 22:15 Clear 35 1.8 22 -5.3 60 60 N 8 13 29.77 1008 10 16.0934 N/A
10:35 pm 22:35 Clear 35 1.5 23 -5.2 61 61 N 13 20 29.77 1008 10 16.0934 N/A
10:55 pm 22:55 Clear 33 0.6 22 -5.7 63 63 N 8 13 29.83 1010 10 16.0934 N/A
11:15 pm 23:15 Clear 32 0.2 21 -6 63 63 N 10 17 29.83 1010 10 16.0934 N/A
11:35 pm 23:35 Clear 32 0 20 -6.6 62 62 N 10 17 29.83 1010 10 16.0934 N/A
11:55 pm 23:55 Clear 31 -0.7 19 -7 63 63 NNW 9 15 29.83 1010 10 16.0934 N/A

Powered by AerisWeather